| time (UTC) | temp F | wind direction | speed knots | gust knots | rain 1hr in | rain 24hr in | rain mn in | humidity % | barometer mb |
| 20260507181542 | 68 | 268 | 3.5 | 7.0 | 0.00 | 0.00 | 0.00 | 51 | 1019.9 |
| 20260507181042 | 68 | 319 | 1.7 | 5.2 | 0.00 | 0.00 | 0.00 | 50 | 1019.8 |
| 20260507180545 | 68 | 275 | 2.6 | 5.2 | 0.00 | 0.00 | 0.00 | 49 | 1019.7 |
| 20260507180050 | 68 | 286 | 1.7 | 6.1 | 0.00 | 0.00 | 0.00 | 49 | 1019.8 |
| 20260507175541 | 68 | 267 | 2.6 | 7.8 | 0.00 | 0.00 | 0.00 | 48 | 1019.7 |
| 20260507175041 | 68 | 272 | 6.1 | 7.8 | 0.00 | 0.00 | 0.00 | 47 | 1019.7 |
| 20260507174541 | 68 | 258 | 3.5 | 7.8 | 0.00 | 0.00 | 0.00 | 48 | 1019.5 |
| 20260507174040 | 69 | 294 | 3.5 | 7.8 | 0.00 | 0.00 | 0.00 | 47 | 1019.6 |
| 20260507173543 | 69 | 269 | 4.3 | 7.8 | 0.00 | 0.00 | 0.00 | 47 | 1019.7 |
| 20260507173055 | 69 | 273 | 4.3 | 9.6 | 0.00 | 0.00 | 0.00 | 47 | 1019.8 |
| 20260507172539 | 69 | 268 | 7.0 | 9.6 | 0.00 | 0.00 | 0.00 | 46 | 1019.8 |
| 20260507172040 | 70 | 269 | 4.3 | 7.0 | 0.00 | 0.00 | 0.00 | 46 | 1019.7 |
| 20260507171539 | 70 | 271 | 4.3 | 11.3 | 0.00 | 0.00 | 0.00 | 43 | 1019.7 |
| 20260507171040 | 70 | 250 | 6.1 | 11.3 | 0.00 | 0.00 | 0.00 | 38 | 1019.6 |
| 20260507170539 | 71 | 258 | 5.2 | 7.8 | 0.00 | 0.00 | 0.00 | 38 | 1019.4 |
| 20260507170049 | 71 | 277 | 2.6 | 5.2 | 0.00 | 0.00 | 0.00 | 39 | 1019.3 |
| 20260507165539 | 71 | 264 | 0.9 | 4.3 | 0.00 | 0.00 | 0.00 | 39 | 1019.1 |
| 20260507165039 | 71 | 256 | 2.6 | 4.3 | 0.00 | 0.00 | 0.00 | 39 | 1019.1 |
| 20260507164538 | 71 | 338 | 1.7 | 5.2 | 0.00 | 0.00 | 0.00 | 40 | 1019.0 |
| 20260507164038 | 71 | 257 | 1.7 | 5.2 | 0.00 | 0.00 | 0.00 | 39 | 1018.9 |
| 20260507163539 | 71 | 250 | 1.7 | 4.3 | 0.00 | 0.00 | 0.00 | 38 | 1019.1 |
| 20260507163038 | 71 | 220 | 2.6 | 7.0 | 0.00 | 0.00 | 0.00 | 39 | 1019.0 |
| 20260507162539 | 72 | 226 | 4.3 | 10.4 | 0.00 | 0.00 | 0.00 | 38 | 1019.1 |
| 20260507162038 | 72 | 185 | 5.2 | 10.4 | 0.00 | 0.00 | 0.00 | 37 | 1019.1 |
| 20260507161540 | 72 | 217 | 6.1 | 10.4 | 0.00 | 0.00 | 0.00 | 37 | 1019.1 |
| 20260507161037 | 71 | 251 | 4.3 | 8.7 | 0.00 | 0.00 | 0.00 | 38 | 1019.2 |
| 20260507160538 | 72 | 263 | 4.3 | 8.7 | 0.00 | 0.00 | 0.00 | 38 | 1019.2 |
| 20260507160038 | 72 | 267 | 4.3 | 8.7 | 0.00 | 0.00 | 0.00 | 37 | 1019.3 |
| 20260507155537 | 71 | 269 | 5.2 | 7.8 | 0.00 | 0.00 | 0.00 | 41 | 1019.2 |
| 20260507155040 | 72 | 223 | 3.5 | 9.6 | 0.00 | 0.00 | 0.00 | 39 | 1019.3 |
| 20260507154537 | 72 | 244 | 6.1 | 10.4 | 0.00 | 0.00 | 0.00 | 37 | 1019.4 |
| 20260507154036 | 72 | 215 | 4.3 | 10.4 | 0.00 | 0.00 | 0.00 | 41 | 1019.4 |
| 20260507153536 | 72 | 246 | 2.6 | 9.6 | 0.00 | 0.00 | 0.00 | 38 | 1019.5 |
| 20260507153035 | 73 | 244 | 7.8 | 10.4 | 0.00 | 0.00 | 0.00 | 37 | 1019.6 |
| 20260507152535 | 73 | 237 | 4.3 | 10.4 | 0.00 | 0.00 | 0.00 | 39 | 1019.6 |
| 20260507152034 | 73 | 235 | 7.0 | 9.6 | 0.00 | 0.00 | 0.00 | 37 | 1019.7 |
| 20260507151535 | 73 | 201 | 7.0 | 9.6 | 0.00 | 0.00 | 0.00 | 37 | 1019.7 |
| 20260507151034 | 73 | 215 | 6.1 | 11.3 | 0.00 | 0.00 | 0.00 | 37 | 1019.6 |
| 20260507150534 | 72 | 251 | 7.8 | 11.3 | 0.00 | 0.00 | 0.00 | 37 | 1019.6 |
| 20260507150034 | 72 | 241 | 6.1 | 11.3 | 0.00 | 0.00 | 0.00 | 40 | 1019.6 |
| 20260507145532 | 72 | 271 | 6.1 | 11.3 | 0.00 | 0.00 | 0.00 | 41 | 1019.6 |
| 20260507145032 | 73 | 251 | 6.1 | 11.3 | 0.00 | 0.00 | 0.00 | 37 | 1019.5 |
| 20260507144532 | 73 | 249 | 8.7 | 11.3 | 0.00 | 0.00 | 0.00 | 35 | 1019.6 |
| 20260507144032 | 74 | 198 | 4.3 | 10.4 | 0.00 | 0.00 | 0.00 | 35 | 1019.5 |
| 20260507143531 | 74 | 214 | 6.1 | 10.4 | 0.00 | 0.00 | 0.00 | 36 | 1019.6 |
| 20260507143031 | 73 | 225 | 7.0 | 10.4 | 0.00 | 0.00 | 0.00 | 36 | 1019.6 |
| 20260507142531 | 74 | 234 | 5.2 | 13.9 | 0.00 | 0.00 | 0.00 | 36 | 1019.6 |
| 20260507142030 | 74 | 202 | 7.0 | 14.8 | 0.00 | 0.00 | 0.00 | 36 | 1019.5 |
| 20260507141531 | 74 | 240 | 9.6 | 17.4 | 0.00 | 0.00 | 0.00 | 33 | 1019.5 |
| 20260507141032 | 74 | 230 | 10.4 | 17.4 | 0.00 | 0.00 | 0.00 | 34 | 1019.4 |
| 20260507140529 | 74 | 206 | 7.0 | 13.9 | 0.00 | 0.00 | 0.00 | 35 | 1019.2 |
| 20260507140034 | 75 | 184 | 7.8 | 12.2 | 0.00 | 0.00 | 0.00 | 33 | 1019.2 |
| 20260507135528 | 75 | 158 | 8.7 | 11.3 | 0.00 | 0.00 | 0.00 | 34 | 1019.1 |
| 20260507135028 | 75 | 254 | 7.0 | 16.5 | 0.00 | 0.00 | 0.00 | 33 | 1019.2 |
| 20260507134527 | 75 | 229 | 7.8 | 15.6 | 0.00 | 0.00 | 0.00 | 34 | 1018.9 |
| 20260507134026 | 75 | 193 | 7.8 | 12.2 | 0.00 | 0.00 | 0.00 | 32 | 1019.0 |
| 20260507133525 | 75 | 259 | 6.1 | 12.2 | 0.00 | 0.00 | 0.00 | 39 | 1018.9 |
| 20260507133024 | 74 | 249 | 6.1 | 10.4 | 0.00 | 0.00 | 0.00 | 38 | 1018.8 |
| 20260507132522 | 74 | 219 | 7.0 | 13.0 | 0.00 | 0.00 | 0.00 | 41 | 1018.9 |
| 20260507132022 | 73 | 261 | 8.7 | 10.4 | 0.00 | 0.00 | 0.00 | 41 | 1018.9 |
| 20260507131521 | 74 | 262 | 7.0 | 10.4 | 0.00 | 0.00 | 0.00 | 44 | 1019.0 |
| 20260507131024 | 73 | 238 | 7.0 | 10.4 | 0.00 | 0.00 | 0.00 | 47 | 1019.0 |
| 20260507130520 | 72 | 234 | 6.1 | 13.0 | 0.00 | 0.00 | 0.00 | 48 | 1019.1 |
| 20260507130020 | 72 | 246 | 7.8 | 13.0 | 0.00 | 0.00 | 0.00 | 50 | 1019.1 |
| 20260507125520 | 71 | 288 | 7.8 | 13.9 | 0.00 | 0.00 | 0.00 | 51 | 1019.3 |
| 20260507125019 | 71 | 269 | 9.6 | 13.9 | 0.00 | 0.00 | 0.00 | 50 | 1019.3 |
| 20260507124519 | 72 | 261 | 8.7 | 12.2 | 0.00 | 0.00 | 0.00 | 49 | 1019.3 |
| 20260507124019 | 72 | 248 | 8.7 | 12.2 | 0.00 | 0.00 | 0.00 | 48 | 1019.4 |
| 20260507123519 | 73 | 219 | 6.1 | 12.2 | 0.00 | 0.00 | 0.00 | 48 | 1019.4 |
| 20260507123022 | 73 | 275 | 8.7 | 12.2 | 0.00 | 0.00 | 0.00 | 48 | 1019.4 |
| 20260507122521 | 73 | 211 | 6.1 | 12.2 | 0.00 | 0.00 | 0.00 | 50 | 1019.5 |
| 20260507122020 | 73 | 230 | 7.8 | 12.2 | 0.00 | 0.00 | 0.00 | 52 | 1019.5 |
| 20260507121517 | 73 | 277 | 7.8 | 13.9 | 0.00 | 0.00 | 0.00 | 50 | 1019.6 |
| 20260507121017 | 73 | 269 | 7.8 | 13.0 | 0.00 | 0.00 | 0.00 | 51 | 1019.6 |
| 20260507120517 | 73 | 262 | 7.8 | 11.3 | 0.00 | 0.00 | 0.00 | 51 | 1019.7 |
| 20260507120016 | 73 | 269 | 7.0 | 11.3 | 0.00 | 0.00 | 0.00 | 51 | 1019.6 |
| 20260507115519 | 73 | 240 | 7.8 | 11.3 | 0.00 | 0.00 | 0.00 | 52 | 1019.6 |
| 20260507115014 | 73 | 267 | 7.0 | 13.0 | 0.00 | 0.00 | 0.00 | 52 | 1019.5 |
| 20260507114514 | 73 | 209 | 7.0 | 13.9 | 0.00 | 0.00 | 0.00 | 53 | 1019.7 |
| 20260507114014 | 72 | 260 | 9.6 | 13.9 | 0.00 | 0.00 | 0.00 | 53 | 1019.7 |
| 20260507113514 | 74 | 263 | 8.7 | 13.9 | 0.00 | 0.00 | 0.00 | 51 | 1019.7 |
| 20260507113014 | 74 | 279 | 7.8 | 13.9 | 0.00 | 0.00 | 0.00 | 52 | 1019.7 |
| 20260507112513 | 73 | 252 | 7.8 | 15.6 | 0.00 | 0.00 | 0.00 | 52 | 1019.6 |
| 20260507112013 | 73 | 251 | 12.2 | 15.6 | 0.00 | 0.00 | 0.00 | 51 | 1019.9 |
| 20260507111516 | 74 | 253 | 9.6 | 13.9 | 0.00 | 0.00 | 0.00 | 52 | 1019.8 |
| 20260507111012 | 73 | 213 | 10.4 | 12.2 | 0.00 | 0.00 | 0.00 | 52 | 1019.8 |
| 20260507110510 | 74 | 230 | 9.6 | 13.9 | 0.00 | 0.00 | 0.00 | 52 | 1019.7 |
| 20260507110010 | 73 | 225 | 8.7 | 13.0 | 0.00 | 0.00 | 0.00 | 56 | 1019.5 |
| 20260507105510 | 74 | 199 | 7.0 | 13.0 | 0.00 | 0.00 | 0.00 | 54 | 1019.7 |
| 20260507105009 | 73 | 265 | 6.1 | 14.8 | 0.00 | 0.00 | 0.00 | 57 | 1019.7 |
| 20260507104508 | 73 | 228 | 10.4 | 14.8 | 0.00 | 0.00 | 0.00 | 54 | 1019.6 |
| 20260507104107 | 74 | 250 | 10.4 | 13.9 | 0.00 | 0.00 | 0.00 | 52 | 1019.6 |
| 20260507103506 | 74 | 220 | 8.7 | 12.2 | 0.00 | 0.00 | 0.00 | 47 | 1019.5 |
| 20260507103006 | 73 | 254 | 7.0 | 9.6 | 0.00 | 0.00 | 0.00 | 55 | 1019.2 |
| 20260507102506 | 74 | 272 | 7.0 | 10.4 | 0.00 | 0.00 | 0.00 | 53 | 1019.2 |
| 20260507102007 | 74 | 219 | 6.1 | 10.4 | 0.00 | 0.00 | 0.00 | 53 | 1019.2 |
| 20260507101507 | 74 | 217 | 6.1 | 11.3 | 0.00 | 0.00 | 0.00 | 51 | 1019.3 |
| 20260507101006 | 73 | 262 | 8.7 | 12.2 | 0.00 | 0.00 | 0.00 | 56 | 1019.3 |
| 20260507100506 | 73 | 275 | 7.0 | 12.2 | 0.00 | 0.00 | 0.00 | 55 | 1019.3 |
| 20260507100011 | 73 | 271 | 7.0 | 10.4 | 0.00 | 0.00 | 0.00 | 55 | 1019.3 |
| 20260507095508 | 74 | 219 | 7.0 | 9.6 | 0.00 | 0.00 | 0.00 | 51 | 1019.3 |
| 20260507095004 | 74 | 243 | 6.1 | 9.6 | 0.00 | 0.00 | 0.00 | 51 | 1019.3 |
| 20260507094502 | 74 | 212 | 6.1 | 9.6 | 0.00 | 0.00 | 0.00 | 49 | 1019.3 |
| 20260507094002 | 74 | 275 | 5.2 | 9.6 | 0.00 | 0.00 | 0.00 | 48 | 1019.3 |
| 20260507093502 | 74 | 215 | 7.8 | 10.4 | 0.00 | 0.00 | 0.00 | 46 | 1019.3 |
| 20260507093006 | 74 | 260 | 7.0 | 10.4 | 0.00 | 0.00 | 0.00 | 45 | 1019.2 |
| 20260507092502 | 75 | 267 | 4.3 | 8.7 | 0.00 | 0.00 | 0.00 | 45 | 1019.3 |
| 20260507092059 | 74 | 259 | 5.2 | 7.8 | 0.00 | 0.00 | 0.00 | 46 | 1019.2 |
| 20260507091558 | 73 | 261 | 4.3 | 7.8 | 0.00 | 0.00 | 0.00 | 47 | 1019.3 |
| 20260507091058 | 73 | 263 | 7.0 | 8.7 | 0.00 | 0.00 | 0.00 | 47 | 1019.4 |
| 20260507090557 | 73 | 265 | 6.1 | 8.7 | 0.00 | 0.00 | 0.00 | 47 | 1019.2 |
| 20260507090100 | 73 | 246 | 4.3 | 7.8 | 0.00 | 0.00 | 0.00 | 46 | 1019.2 |
| 20260507085555 | 73 | 260 | 3.5 | 7.0 | 0.00 | 0.00 | 0.00 | 47 | 1019.1 |
| 20260507085056 | 73 | 221 | 4.3 | 7.0 | 0.00 | 0.00 | 0.00 | 48 | 1019.1 |
| 20260507084604 | 72 | 260 | 4.3 | 7.8 | 0.00 | 0.00 | 0.00 | 47 | 1019.2 |
| 20260507084052 | 72 | 212 | 5.2 | 7.8 | 0.00 | 0.00 | 0.00 | 47 | 1019.4 |
| 20260507083552 | 72 | 238 | 4.3 | 7.0 | 0.00 | 0.00 | 0.00 | 48 | 1019.5 |
| 20260507083052 | 72 | 227 | 3.5 | 7.0 | 0.00 | 0.00 | 0.00 | 47 | 1019.4 |
| 20260507082550 | 72 | 215 | 3.5 | 7.0 | 0.00 | 0.00 | 0.00 | 46 | 1019.4 |
| 20260507082050 | 72 | 208 | 3.5 | 7.0 | 0.00 | 0.00 | 0.00 | 47 | 1019.4 |
| 20260507081550 | 71 | 269 | 2.6 | 7.0 | 0.00 | 0.00 | 0.00 | 48 | 1019.3 |
| 20260507081049 | 71 | 233 | 4.3 | 7.8 | 0.00 | 0.00 | 0.00 | 47 | 1019.3 |
| 20260507080551 | 71 | 256 | 3.5 | 6.1 | 0.00 | 0.00 | 0.00 | 49 | 1019.4 |
| 20260507080053 | 71 | 200 | 4.3 | 7.8 | 0.00 | 0.00 | 0.00 | 50 | 1019.3 |
| 20260507075547 | 71 | 246 | 3.5 | 8.7 | 0.00 | 0.00 | 0.00 | 51 | 1019.4 |
| 20260507075046 | 70 | 273 | 6.1 | 8.7 | 0.00 | 0.00 | 0.00 | 52 | 1019.3 |
| 20260507074545 | 70 | 266 | 4.3 | 8.7 | 0.00 | 0.00 | 0.00 | 52 | 1019.3 |
| 20260507074044 | 70 | 247 | 5.2 | 8.7 | 0.00 | 0.00 | 0.00 | 53 | 1019.3 |
| 20260507073543 | 70 | 250 | 5.2 | 7.8 | 0.00 | 0.00 | 0.00 | 54 | 1019.1 |
| 20260507073044 | 70 | 222 | 3.5 | 7.0 | 0.00 | 0.00 | 0.00 | 54 | 1019.1 |
| 20260507072543 | 70 | 231 | 1.7 | 7.0 | 0.00 | 0.00 | 0.00 | 53 | 1019.1 |
| 20260507072041 | 70 | 230 | 2.6 | 7.0 | 0.00 | 0.00 | 0.00 | 53 | 1019.2 |
| 20260507071540 | 69 | 247 | 4.3 | 7.0 | 0.00 | 0.00 | 0.00 | 53 | 1019.2 |
| 20260507071039 | 70 | 198 | 2.6 | 7.0 | 0.00 | 0.00 | 0.00 | 53 | 1019.2 |
| 20260507070539 | 69 | 182 | 2.6 | 7.0 | 0.00 | 0.00 | 0.00 | 54 | 1019.4 |
| 20260507070058 | 69 | 231 | 3.5 | 6.1 | 0.00 | 0.00 | 0.00 | 53 | 1019.4 |
| 20260507065537 | 69 | 238 | 3.5 | 7.8 | 0.00 | 0.00 | 0.00 | 53 | 1019.4 |
| 20260507065036 | 69 | 219 | 4.3 | 7.8 | 0.00 | 0.00 | 0.00 | 52 | 1019.4 |
| 20260507064536 | 69 | 197 | 4.3 | 8.7 | 0.00 | 0.00 | 0.00 | 53 | 1019.4 |
| 20260507064033 | 69 | 232 | 4.3 | 9.6 | 0.00 | 0.00 | 0.00 | 53 | 1019.4 |
| 20260507063531 | 69 | 261 | 4.3 | 7.0 | 0.00 | 0.00 | 0.00 | 53 | 1019.3 |
| 20260507063034 | 69 | 205 | 4.3 | 7.0 | 0.00 | 0.00 | 0.00 | 54 | 1019.2 |
| 20260507062529 | 69 | 248 | 3.5 | 7.0 | 0.00 | 0.00 | 0.00 | 53 | 1019.2 |
| 20260507062028 | 68 | 209 | 4.3 | 7.0 | 0.00 | 0.00 | 0.00 | 53 | 1019.2 |
| 20260507061528 | 68 | 213 | 2.6 | 5.2 | 0.00 | 0.00 | 0.00 | 52 | 1019.1 |
| 20260507061026 | 68 | 238 | 2.6 | 4.3 | 0.00 | 0.00 | 0.00 | 53 | 1019.1 |
| 20260507060525 | 68 | 233 | 1.7 | 3.5 | 0.00 | 0.00 | 0.00 | 53 | 1019.0 |
| 20260507060024 | 68 | 269 | 1.7 | 3.5 | 0.00 | 0.00 | 0.00 | 53 | 1018.8 |
| 20260507055523 | 68 | 283 | 0.9 | 3.5 | 0.00 | 0.00 | 0.00 | 53 | 1018.8 |
| 20260507055021 | 67 | 28 | 0.9 | 4.3 | 0.00 | 0.00 | 0.00 | 54 | 1018.7 |
| 20260507054519 | 66 | 11 | 1.7 | 5.2 | 0.00 | 0.00 | 0.00 | 57 | 1018.7 |
| 20260507054022 | 66 | 355 | 2.6 | 5.2 | 0.00 | 0.00 | 0.00 | 58 | 1018.6 |
| 20260507053516 | 65 | 355 | 2.6 | 4.3 | 0.00 | 0.00 | 0.00 | 58 | 1018.5 |
| 20260507053016 | 65 | 355 | 0.9 | 4.3 | 0.00 | 0.00 | 0.00 | 59 | 1018.5 |
| 20260507052514 | 65 | 360 | 0.9 | 4.3 | 0.00 | 0.00 | 0.00 | 60 | 1018.5 |
| 20260507052012 | 64 | 13 | 1.7 | 3.5 | 0.00 | 0.00 | 0.00 | 60 | 1018.4 |
| 20260507051511 | 64 | 11 | 1.7 | 4.3 | 0.00 | 0.00 | 0.00 | 60 | 1018.4 |
| 20260507051010 | 63 | 58 | 0.9 | 5.2 | 0.00 | 0.00 | 0.00 | 61 | 1018.4 |
| 20260507050508 | 62 | 30 | 0.9 | 5.2 | 0.00 | 0.00 | 0.00 | 62 | 1018.4 |
| 20260507050024 | 62 | 73 | 2.6 | 5.2 | 0.00 | 0.00 | 0.00 | 62 | 1018.4 |
| 20260507045507 | 61 | 56 | 2.6 | 5.2 | 0.00 | 0.00 | 0.00 | 64 | 1018.4 |
| 20260507045005 | 60 | 17 | 2.6 | 4.3 | 0.00 | 0.00 | 0.00 | 65 | 1018.5 |
| 20260507044503 | 59 | 15 | 1.7 | 3.5 | 0.00 | 0.00 | 0.00 | 67 | 1018.5 |
| 20260507044002 | 58 | 40 | 1.7 | 3.5 | 0.00 | 0.00 | 0.00 | 68 | 1018.5 |
| 20260507043500 | 58 | 24 | 1.7 | 4.3 | 0.00 | 0.00 | 0.00 | 68 | 1018.4 |
| 20260507043100 | 58 | 23 | 1.7 | 3.5 | 0.00 | 0.00 | 0.00 | 68 | 1018.4 |
| 20260507042603 | 58 | 355 | 0.0 | 3.5 | 0.00 | 0.00 | 0.00 | 67 | 1018.4 |
| 20260507042057 | 58 | 57 | 0.9 | 5.2 | 0.00 | 0.00 | 0.00 | 68 | 1018.4 |
| 20260507041603 | 57 | 53 | 2.6 | 5.2 | 0.00 | 0.00 | 0.00 | 70 | 1018.5 |
| 20260507041101 | 56 | 49 | 2.6 | 5.2 | 0.00 | 0.00 | 0.00 | 71 | 1018.5 |
| 20260507040552 | 56 | 29 | 2.6 | 4.3 | 0.00 | 0.00 | 0.00 | 71 | 1018.5 |
| 20260507040052 | 56 | 37 | 2.6 | 4.3 | 0.00 | 0.00 | 0.00 | 70 | 1018.6 |
| 20260507035551 | 56 | 41 | 0.9 | 3.5 | 0.00 | 0.00 | 0.00 | 70 | 1018.5 |
| 20260507035048 | 57 | 38 | 0.0 | 4.3 | 0.00 | 0.00 | 0.00 | 69 | 1018.5 |
| 20260507034546 | 57 | 73 | 0.9 | 4.3 | 0.00 | 0.00 | 0.00 | 70 | 1018.5 |
| 20260507034045 | 56 | 49 | 2.6 | 4.3 | 0.00 | 0.00 | 0.00 | 71 | 1018.5 |
| 20260507033544 | 55 | 50 | 2.6 | 5.2 | 0.00 | 0.00 | 0.00 | 72 | 1018.4 |
| 20260507033044 | 55 | 59 | 2.6 | 5.2 | 0.00 | 0.00 | 0.00 | 73 | 1018.4 |
| 20260507032543 | 55 | 27 | 2.6 | 4.3 | 0.00 | 0.00 | 0.00 | 72 | 1018.4 |
| 20260507032043 | 56 | 36 | 1.7 | 3.5 | 0.00 | 0.00 | 0.00 | 70 | 1018.3 |
| 20260507031543 | 57 | 71 | 1.7 | 3.5 | 0.00 | 0.00 | 0.00 | 71 | 1018.3 |
| 20260507031041 | 56 | 62 | 1.7 | 3.5 | 0.00 | 0.00 | 0.00 | 72 | 1018.3 |
| 20260507030542 | 56 | 68 | 0.9 | 2.6 | 0.00 | 0.00 | 0.00 | 71 | 1018.3 |
| 20260507030041 | 56 | 63 | 0.9 | 2.6 | 0.00 | 0.00 | 0.00 | 71 | 1018.3 |
| 20260507025540 | 56 | 59 | 1.7 | 2.6 | 0.00 | 0.00 | 0.00 | 72 | 1018.2 |
| 20260507025041 | 55 | 44 | 0.9 | 4.3 | 0.00 | 0.00 | 0.00 | 72 | 1018.2 |
| 20260507024540 | 55 | 37 | 1.7 | 4.3 | 0.00 | 0.00 | 0.00 | 73 | 1018.3 |
| 20260507024040 | 55 | 40 | 2.6 | 4.3 | 0.00 | 0.00 | 0.00 | 72 | 1018.3 |
| 20260507023539 | 55 | 31 | 1.7 | 3.5 | 0.00 | 0.00 | 0.00 | 72 | 1018.3 |
| 20260507023039 | 55 | 57 | 1.7 | 3.5 | 0.00 | 0.00 | 0.00 | 71 | 1018.3 |
| 20260507022539 | 56 | 44 | 1.7 | 3.5 | 0.00 | 0.00 | 0.00 | 71 | 1018.2 |
| 20260507022039 | 56 | 53 | 1.7 | 3.5 | 0.00 | 0.00 | 0.00 | 70 | 1018.3 |
| 20260507021539 | 56 | 73 | 0.9 | 2.6 | 0.00 | 0.00 | 0.00 | 69 | 1018.3 |
| 20260507021038 | 56 | 77 | 0.9 | 2.6 | 0.00 | 0.00 | 0.00 | 69 | 1018.2 |
| 20260507020538 | 57 | 94 | 0.0 | 3.5 | 0.00 | 0.00 | 0.00 | 68 | 1018.2 |
| 20260507020045 | 57 | 94 | 0.9 | 5.2 | 0.00 | 0.00 | 0.00 | 68 | 1018.1 |
| 20260507015537 | 56 | 102 | 1.7 | 5.2 | 0.00 | 0.00 | 0.00 | 68 | 1018.1 |
| 20260507015037 | 56 | 83 | 3.5 | 5.2 | 0.00 | 0.00 | 0.00 | 69 | 1018.1 |
| 20260507014542 | 56 | 86 | 2.6 | 5.2 | 0.00 | 0.00 | 0.00 | 69 | 1018.1 |
| 20260507014037 | 55 | 73 | 3.5 | 6.1 | 0.00 | 0.00 | 0.00 | 70 | 1018.2 |
| 20260507013536 | 55 | 63 | 4.3 | 6.1 | 0.00 | 0.00 | 0.00 | 70 | 1018.0 |
| 20260507013043 | 55 | 40 | 3.5 | 5.2 | 0.00 | 0.00 | 0.00 | 71 | 1017.9 |
| 20260507012535 | 55 | 17 | 2.6 | 7.0 | 0.00 | 0.00 | 0.00 | 71 | 1017.9 |
| 20260507012034 | 55 | 34 | 2.6 | 7.8 | 0.00 | 0.00 | 0.00 | 71 | 1017.8 |
| 20260507011541 | 55 | 38 | 4.3 | 7.8 | 0.00 | 0.00 | 0.00 | 71 | 1017.5 |
| 20260507011033 | 55 | 46 | 4.3 | 7.0 | 0.00 | 0.00 | 0.00 | 71 | 1017.4 |
| 20260507010532 | 55 | 24 | 3.5 | 5.2 | 0.00 | 0.00 | 0.00 | 70 | 1017.3 |
| 20260507010041 | 55 | 32 | 4.3 | 7.0 | 0.00 | 0.00 | 0.00 | 70 | 1017.4 |
| 20260507005533 | 55 | 38 | 3.5 | 7.0 | 0.00 | 0.00 | 0.00 | 70 | 1017.3 |
| 20260507005031 | 55 | 29 | 2.6 | 5.2 | 0.00 | 0.00 | 0.00 | 70 | 1017.5 |
| 20260507004530 | 55 | 46 | 3.5 | 5.2 | 0.00 | 0.00 | 0.00 | 70 | 1017.4 |
| 20260507004030 | 55 | 44 | 3.5 | 5.2 | 0.00 | 0.00 | 0.00 | 71 | 1017.4 |
| 20260507003530 | 55 | 30 | 3.5 | 5.2 | 0.00 | 0.00 | 0.00 | 70 | 1017.3 |
| 20260507003029 | 56 | 28 | 3.5 | 5.2 | 0.00 | 0.00 | 0.00 | 69 | 1017.3 |
| 20260507002528 | 56 | 49 | 2.6 | 5.2 | 0.00 | 0.00 | 0.00 | 69 | 1017.3 |
| 20260507002027 | 56 | 42 | 2.6 | 6.1 | 0.00 | 0.00 | 0.00 | 69 | 1017.3 |
| 20260507001537 | 56 | 49 | 3.5 | 7.8 | 0.00 | 0.00 | 0.00 | 70 | 1017.4 |
| 20260507001026 | 56 | 46 | 5.2 | 7.8 | 0.00 | 0.00 | 0.00 | 70 | 1017.5 |
| 20260507000525 | 56 | 34 | 4.3 | 7.8 | 0.00 | 0.00 | 0.00 | 70 | 1017.5 |
| 20260507000031 | 56 | 34 | 3.5 | 5.2 | 0.00 | 0.00 | 0.00 | 69 | 1017.6 |
| 20260506235523 | 56 | 44 | 2.6 | 6.1 | 0.00 | 0.00 | 0.00 | 69 | 1017.6 |
| 20260506235023 | 56 | 40 | 4.3 | 5.2 | 0.00 | 0.00 | 0.00 | 69 | 1017.7 |
| 20260506234522 | 56 | 40 | 3.5 | 6.1 | 0.00 | 0.00 | 0.00 | 69 | 1017.8 |
| 20260506234022 | 56 | 36 | 4.3 | 6.1 | 0.00 | 0.00 | 0.00 | 69 | 1017.9 |
| 20260506233520 | 56 | 38 | 2.6 | 5.2 | 0.00 | 0.00 | 0.00 | 69 | 1018.0 |
| 20260506233019 | 56 | 32 | 3.5 | 5.2 | 0.00 | 0.00 | 0.00 | 68 | 1018.0 |
| 20260506232517 | 57 | 22 | 2.6 | 3.5 | 0.00 | 0.00 | 0.00 | 67 | 1018.1 |
| 20260506232017 | 57 | 39 | 1.7 | 5.2 | 0.00 | 0.00 | 0.00 | 66 | 1018.1 |
| 20260506231519 | 57 | 54 | 2.6 | 5.2 | 0.00 | 0.00 | 0.00 | 67 | 1018.0 |
| 20260506231016 | 57 | 41 | 3.5 | 5.2 | 0.00 | 0.00 | 0.00 | 67 | 1018.1 |
| 20260506230516 | 57 | 25 | 2.6 | 4.3 | 0.00 | 0.00 | 0.00 | 67 | 1018.2 |
| 20260506230016 | 57 | 35 | 2.6 | 4.3 | 0.00 | 0.00 | 0.00 | 68 | 1018.2 |
| 20260506225516 | 57 | 30 | 2.6 | 4.3 | 0.00 | 0.00 | 0.00 | 68 | 1018.2 |
| 20260506225013 | 57 | 30 | 2.6 | 4.3 | 0.00 | 0.00 | 0.00 | 67 | 1018.2 |
| 20260506224514 | 58 | 38 | 2.6 | 3.5 | 0.00 | 0.00 | 0.00 | 65 | 1018.3 |
| 20260506224009 | 59 | 74 | 1.7 | 3.5 | 0.00 | 0.00 | 0.00 | 63 | 1018.2 |
| 20260506223509 | 60 | 76 | 1.7 | 3.5 | 0.00 | 0.00 | 0.00 | 62 | 1018.3 |
| 20260506223009 | 61 | 76 | 0.9 | 3.5 | 0.00 | 0.00 | 0.00 | 61 | 1018.3 |
| 20260506222509 | 60 | 78 | 1.7 | 3.5 | 0.00 | 0.00 | 0.00 | 62 | 1018.3 |
| 20260506222009 | 60 | 70 | 1.7 | 5.2 | 0.00 | 0.00 | 0.00 | 62 | 1018.3 |
| 20260506221508 | 59 | 53 | 3.5 | 5.2 | 0.00 | 0.00 | 0.00 | 63 | 1018.4 |
| 20260506221008 | 59 | 38 | 2.6 | 4.3 | 0.00 | 0.00 | 0.00 | 64 | 1018.4 |
| 20260506220507 | 59 | 46 | 2.6 | 4.3 | 0.00 | 0.00 | 0.00 | 65 | 1018.4 |
| 20260506220007 | 59 | 32 | 2.6 | 4.3 | 0.00 | 0.00 | 0.00 | 65 | 1018.3 |
| 20260506215507 | 59 | 53 | 2.6 | 4.3 | 0.00 | 0.00 | 0.00 | 65 | 1018.3 |
| 20260506215006 | 59 | 38 | 2.6 | 6.1 | 0.00 | 0.00 | 0.00 | 65 | 1018.4 |
| 20260506214505 | 59 | 46 | 3.5 | 4.3 | 0.00 | 0.00 | 0.00 | 65 | 1018.3 |
| 20260506214005 | 59 | 43 | 2.6 | 4.3 | 0.00 | 0.00 | 0.00 | 65 | 1018.3 |
| 20260506213507 | 59 | 35 | 2.6 | 5.2 | 0.00 | 0.00 | 0.00 | 66 | 1018.3 |
| 20260506213003 | 59 | 30 | 2.6 | 4.3 | 0.00 | 0.00 | 0.00 | 65 | 1018.4 |
| 20260506212502 | 60 | 17 | 2.6 | 3.5 | 0.00 | 0.00 | 0.00 | 64 | 1018.5 |
| 20260506212101 | 61 | 28 | 0.9 | 2.6 | 0.00 | 0.00 | 0.00 | 63 | 1018.5 |
| 20260506211559 | 61 | 59 | 0.0 | 0.0 | 0.00 | 0.00 | 0.00 | 62 | 1018.5 |
| 20260506211104 | 62 | 56 | 0.0 | 1.7 | 0.00 | 0.00 | 0.00 | 62 | 1018.5 |
| 20260506210559 | 62 | 54 | 0.0 | 1.7 | 0.00 | 0.00 | 0.00 | 62 | 1018.5 |
| 20260506210057 | 61 | 48 | 0.0 | 1.7 | 0.00 | 0.00 | 0.00 | 62 | 1018.5 |
| 20260506205557 | 62 | 51 | 0.0 | 1.7 | 0.00 | 0.00 | 0.00 | 61 | 1018.6 |
| 20260506205057 | 63 | 53 | 0.0 | 1.7 | 0.00 | 0.00 | 0.00 | 59 | 1018.6 |
| 20260506204557 | 63 | 46 | 0.0 | 0.0 | 0.00 | 0.00 | 0.00 | 59 | 1018.6 |
| 20260506204056 | 62 | 34 | 0.0 | 0.0 | 0.00 | 0.00 | 0.00 | 59 | 1018.7 |
| 20260506203556 | 62 | 33 | 0.0 | 0.0 | 0.00 | 0.00 | 0.00 | 60 | 1018.7 |
| 20260506203056 | 62 | 34 | 0.0 | 0.0 | 0.00 | 0.00 | 0.00 | 60 | 1018.7 |
| 20260506202555 | 62 | 32 | 0.0 | 0.0 | 0.00 | 0.00 | 0.00 | 60 | 1018.7 |
| 20260506202056 | 63 | 30 | 0.0 | 0.0 | 0.00 | 0.00 | 0.00 | 59 | 1018.7 |
| 20260506201555 | 64 | 26 | 0.0 | 0.0 | 0.00 | 0.00 | 0.00 | 57 | 1018.7 |
| 20260506201054 | 65 | 26 | 0.0 | 0.9 | 0.00 | 0.00 | 0.00 | 55 | 1018.6 |
| 20260506200554 | 65 | 26 | 0.0 | 0.9 | 0.00 | 0.00 | 0.00 | 53 | 1018.5 |
| 20260506200054 | 65 | 24 | 0.0 | 2.6 | 0.00 | 0.00 | 0.00 | 53 | 1018.5 |
| 20260506195553 | 65 | 24 | 0.9 | 2.6 | 0.00 | 0.00 | 0.00 | 51 | 1018.5 |
| 20260506195053 | 65 | 28 | 0.9 | 2.6 | 0.00 | 0.00 | 0.00 | 53 | 1018.5 |
| 20260506194552 | 65 | 28 | 0.0 | 2.6 | 0.00 | 0.00 | 0.00 | 53 | 1018.4 |
| 20260506194050 | 65 | 20 | 0.9 | 3.5 | 0.00 | 0.00 | 0.00 | 52 | 1018.4 |
| 20260506193551 | 65 | 22 | 0.9 | 3.5 | 0.00 | 0.00 | 0.00 | 53 | 1018.3 |
| 20260506193055 | 65 | 24 | 0.9 | 2.6 | 0.00 | 0.00 | 0.00 | 52 | 1018.3 |
| 20260506192549 | 66 | 28 | 0.9 | 2.6 | 0.00 | 0.00 | 0.00 | 52 | 1018.2 |
| 20260506192049 | 67 | 20 | 0.0 | 1.7 | 0.00 | 0.00 | 0.00 | 50 | 1018.1 |
| 20260506191553 | 67 | 19 | 0.0 | 1.7 | 0.00 | 0.00 | 0.00 | 49 | 1018.1 |
| 20260506191053 | 68 | 12 | 0.0 | 1.7 | 0.00 | 0.00 | 0.00 | 47 | 1018.1 |
| 20260506190548 | 68 | 17 | 0.0 | 2.6 | 0.00 | 0.00 | 0.00 | 46 | 1017.9 |
| 20260506190050 | 68 | 18 | 0.9 | 2.6 | 0.00 | 0.00 | 0.00 | 46 | 1018.0 |
| 20260506185548 | 68 | 25 | 0.9 | 3.5 | 0.00 | 0.00 | 0.00 | 46 | 1017.9 |
| 20260506185048 | 68 | 360 | 0.9 | 3.5 | 0.00 | 0.00 | 0.00 | 45 | 1018.0 |
| 20260506184548 | 68 | 350 | 1.7 | 3.5 | 0.00 | 0.00 | 0.00 | 45 | 1017.9 |
| 20260506184048 | 68 | 350 | 0.9 | 2.6 | 0.00 | 0.00 | 0.00 | 45 | 1017.8 |
| 20260506183548 | 68 | 322 | 0.0 | 2.6 | 0.00 | 0.00 | 0.00 | 45 | 1017.8 |
| 20260506183051 | 69 | 337 | 0.0 | 2.6 | 0.00 | 0.00 | 0.00 | 45 | 1017.7 |
| 20260506182548 | 68 | 342 | 1.7 | 2.6 | 0.00 | 0.00 | 0.00 | 45 | 1017.6 |
| 20260506182048 | 68 | 335 | 0.9 | 3.5 | 0.00 | 0.00 | 0.00 | 46 | 1017.5 |